TimeCST,TemperatureF,Dew PointF,Humidity,Sea Level PressureIn,VisibilityMPH,Wind Direction,Wind SpeedMPH,Gust SpeedMPH,PrecipitationIn,Events,Conditions,WindDirDegrees,DateUTC
12:55 AM,12.4,9.1,87,30.24,10.0,Calm,Calm,-,N/A,,Mostly Cloudy,0,2012-11-14 06:55:00
1:55 AM,12.6,9.3,87,30.25,10.0,NNW,3.5,-,N/A,,Mostly Cloudy,330,2012-11-14 07:55:00
2:55 AM,12.0,9.0,88,30.25,10.0,Calm,Calm,-,N/A,,Clear,0,2012-11-14 08:55:00
3:55 AM,10.2,7.0,87,30.24,10.0,Calm,Calm,-,N/A,,Clear,0,2012-11-14 09:55:00
4:55 AM,11.1,7.9,87,30.23,10.0,Calm,Calm,-,N/A,,Clear,0,2012-11-14 10:55:00
5:55 AM,12.4,9.0,86,30.21,10.0,Calm,Calm,-,N/A,,Clear,0,2012-11-14 11:55:00
6:55 AM,12.9,9.0,84,30.20,10.0,Calm,Calm,-,N/A,,Clear,0,2012-11-14 12:55:00
7:55 AM,12.9,9.5,86,30.18,10.0,South,3.5,-,N/A,,Clear,170,2012-11-14 13:55:00
8:55 AM,15.1,11.5,86,30.18,10.0,SSE,4.6,-,N/A,,Clear,160,2012-11-14 14:55:00
9:55 AM,21.7,17.1,82,30.17,10.0,South,5.8,-,N/A,,Clear,180,2012-11-14 15:55:00
10:55 AM,27.0,22.6,84,30.15,9.0,South,9.2,-,N/A,,Clear,180,2012-11-14 16:55:00
11:55 AM,29.5,25.7,86,30.13,9.0,South,6.9,-,N/A,,Clear,180,2012-11-14 17:55:00
12:55 PM,31.5,27.9,87,30.10,10.0,South,10.4,-,N/A,,Clear,190,2012-11-14 18:55:00
1:39 PM,32.0,28.4,87,30.09,9.0,South,10.4,-,N/A,,Partly Cloudy,180,2012-11-14 19:39:00
1:48 PM,32.0,28.4,87,30.08,7.0,South,10.4,-,N/A,,Mostly Cloudy,190,2012-11-14 19:48:00
1:55 PM,31.8,29.1,90,30.09,6.0,South,9.2,-,N/A,,Mostly Cloudy,190,2012-11-14 19:55:00
2:08 PM,30.2,28.4,93,30.08,7.0,SSW,10.4,-,N/A,,Mostly Cloudy,200,2012-11-14 20:08:00
2:11 PM,30.2,28.4,93,30.08,6.0,SSW,11.5,-,N/A,,Mostly Cloudy,200,2012-11-14 20:11:00
2:25 PM,30.2,28.4,93,30.08,6.0,South,12.7,-,N/A,,Overcast,190,2012-11-14 20:25:00
2:55 PM,30.7,28.9,93,30.07,6.0,SSW,9.2,-,N/A,,Overcast,200,2012-11-14 20:55:00
3:54 PM,32.0,30.2,93,30.06,8.0,South,5.8,-,N/A,,Scattered Clouds,180,2012-11-14 21:54:00
3:55 PM,32.2,30.2,92,30.06,8.0,South,4.6,-,N/A,,Mostly Cloudy,180,2012-11-14 21:55:00
4:14 PM,32.0,30.2,93,30.06,7.0,SSE,6.9,-,N/A,,Partly Cloudy,150,2012-11-14 22:14:00
4:23 PM,32.0,30.2,93,30.05,4.0,SSE,5.8,-,N/A,,Mostly Cloudy,160,2012-11-14 22:23:00
4:35 PM,30.2,28.4,93,30.05,2.5,South,6.9,-,N/A,,Mostly Cloudy,170,2012-11-14 22:35:00
4:37 PM,30.2,28.4,93,30.05,1.8,SSE,6.9,-,N/A,,Mostly Cloudy,160,2012-11-14 22:37:00
4:39 PM,30.2,28.4,93,30.05,1.5,SSE,6.9,-,N/A,,Scattered Clouds,160,2012-11-14 22:39:00
4:41 PM,30.2,28.4,93,30.05,1.2,SSE,5.8,-,N/A,,Scattered Clouds,160,2012-11-14 22:41:00
4:43 PM,30.2,28.4,93,30.05,1.0,SSE,6.9,-,N/A,,Mist,160,2012-11-14 22:43:00
4:50 PM,30.2,28.4,93,30.05,0.8,South,6.9,-,N/A,,Mist,170,2012-11-14 22:50:00
4:53 PM,30.2,28.4,93,30.04,0.5,South,5.8,-,N/A,Fog,Light Freezing Fog,170,2012-11-14 22:53:00
4:55 PM,29.8,28.6,95,30.05,0.8,South,5.8,-,N/A,,Mist,170,2012-11-14 22:55:00
4:56 PM,30.2,28.4,93,30.04,0.2,South,6.9,-,N/A,Fog,Light Freezing Fog,180,2012-11-14 22:56:00
4:59 PM,30.2,28.4,93,30.04,0.2,South,5.8,-,N/A,Fog,Light Freezing Fog,180,2012-11-14 22:59:00
5:01 PM,30.2,28.4,93,30.04,0.2,South,5.8,-,N/A,Fog,Light Freezing Fog,180,2012-11-14 23:01:00
5:03 PM,30.2,28.4,93,30.04,0.2,South,5.8,-,N/A,Fog,Light Freezing Fog,180,2012-11-14 23:03:00
5:19 PM,28.4,26.6,93,30.04,0.5,South,5.8,-,N/A,Fog,Light Freezing Fog,180,2012-11-14 23:19:00
5:29 PM,28.4,26.6,93,30.03,0.5,South,5.8,-,N/A,Fog,Light Freezing Fog,180,2012-11-14 23:29:00
5:31 PM,28.4,26.6,93,30.03,0.8,South,5.8,-,N/A,,Clear,180,2012-11-14 23:31:00
5:37 PM,26.6,26.6,100,30.03,0.5,South,4.6,-,N/A,Fog,Light Freezing Fog,180,2012-11-14 23:37:00
5:42 PM,26.6,26.6,100,30.03,0.5,South,5.8,-,N/A,Fog,Light Freezing Fog,190,2012-11-14 23:42:00
5:46 PM,26.6,26.6,100,30.03,0.5,South,5.8,-,N/A,Fog,Light Freezing Fog,190,2012-11-14 23:46:00
5:50 PM,26.6,26.6,100,30.03,0.8,South,4.6,-,N/A,,Partly Cloudy,190,2012-11-14 23:50:00
5:51 PM,26.6,24.8,93,30.03,0.8,South,4.6,-,N/A,,Partly Cloudy,190,2012-11-14 23:51:00
5:53 PM,26.6,24.8,93,30.03,1.0,South,4.6,-,N/A,,Scattered Clouds,190,2012-11-14 23:53:00
5:56 PM,26.6,26.6,100,30.03,1.2,South,4.6,-,N/A,,Scattered Clouds,190,2012-11-14 23:56:00
5:57 PM,26.6,26.6,100,30.03,1.5,South,4.6,-,N/A,,Scattered Clouds,190,2012-11-14 23:57:00
6:00 PM,26.6,26.6,100,30.03,2.0,South,4.6,-,N/A,,Mostly Cloudy,190,2012-11-15 00:00:00
6:03 PM,26.6,26.6,100,30.03,3.0,South,4.6,-,N/A,,Mostly Cloudy,190,2012-11-15 00:03:00
6:13 PM,26.6,24.8,93,30.03,2.5,South,4.6,-,N/A,,Scattered Clouds,180,2012-11-15 00:13:00
6:15 PM,26.6,24.8,93,30.03,1.8,South,5.8,-,N/A,,Scattered Clouds,180,2012-11-15 00:15:00
6:18 PM,26.6,24.8,93,30.03,1.2,South,6.9,-,N/A,,Scattered Clouds,180,2012-11-15 00:18:00
6:20 PM,26.6,24.8,93,30.03,1.5,South,6.9,-,N/A,,Scattered Clouds,180,2012-11-15 00:20:00
6:24 PM,26.6,26.6,100,30.03,1.8,South,6.9,-,N/A,,Mostly Cloudy,180,2012-11-15 00:24:00
6:26 PM,26.6,26.6,100,30.03,2.0,South,6.9,-,N/A,,Scattered Clouds,180,2012-11-15 00:26:00
6:28 PM,26.6,24.8,93,30.02,3.0,South,6.9,-,N/A,,Scattered Clouds,190,2012-11-15 00:28:00
6:30 PM,26.6,24.8,93,30.03,4.0,South,5.8,-,N/A,,Scattered Clouds,190,2012-11-15 00:30:00
6:55 PM,27.1,25.7,94,30.03,7.0,SSW,6.9,-,N/A,,Clear,200,2012-11-15 00:55:00
7:55 PM,27.7,26.6,96,30.02,8.0,South,8.1,-,N/A,,Clear,180,2012-11-15 01:55:00
8:07 PM,30.2,28.4,93,30.02,7.0,SW,5.8,-,N/A,,Clear,220,2012-11-15 02:07:00
8:55 PM,31.3,28.6,90,30.02,10.0,SW,6.9,-,N/A,,Clear,230,2012-11-15 02:55:00
9:55 PM,34.0,30.7,88,30.01,10.0,SW,9.2,-,N/A,,Mostly Cloudy,230,2012-11-15 03:55:00
10:55 PM,35.1,30.4,83,30.01,10.0,WSW,15.0,-,N/A,,Scattered Clouds,250,2012-11-15 04:55:00
11:55 PM,34.9,29.5,81,30.03,10.0,West,11.5,-,0.01,,Clear,260,2012-11-15 05:55:00